Kampen, Netherlands
Current Conditions -  °F | °C
As of 3:25 AM on Saturday 29 Nov 2014 (Local Time) from EHDL Reporting Station
Haze Haze  
Wind Chill: 28°   Ceiling: Unl
Heat Index: 34°   Visibility: 3mi
Dew Point: 32°   Wind: 7mph
Humidity: 93%   Direction: 90°E
Pressure: 29.91"   Gusts: NA
Location:  52.56°N, 5.91°E
Report Text: EHDL 290225Z AUTO 09006KT 5000 BR FEW090 01/M00 Q1013 WHT
Loading
Personal Weather Stations






























Interactive Weather Map New forecast layout! Learn more

10-Day Weather Forecast

Advertisements
Track Severe Weather on mobile